Year,Month,Day,Hour,Minute,Value (Times are PST for temperature in C)
2016,03,29,00,00,3.90
2016,03,29,00,01,3.90
2016,03,29,00,02,3.90
2016,03,29,00,03,3.90
2016,03,29,00,04,3.90
2016,03,29,00,05,3.90
2016,03,29,00,06,3.90
2016,03,29,00,07,3.90
2016,03,29,00,08,3.80
2016,03,29,00,09,3.80
2016,03,29,00,10,3.80
2016,03,29,00,11,3.80
2016,03,29,00,12,3.80
2016,03,29,00,13,3.80
2016,03,29,00,14,3.80
2016,03,29,00,15,3.80
2016,03,29,00,16,3.80
2016,03,29,00,17,3.70
2016,03,29,00,18,3.70
2016,03,29,00,19,3.70
2016,03,29,00,20,3.70
2016,03,29,00,21,3.70
2016,03,29,00,22,3.60
2016,03,29,00,23,3.60
2016,03,29,00,24,3.60
2016,03,29,00,25,3.60
2016,03,29,00,26,3.60
2016,03,29,00,27,3.50
2016,03,29,00,28,3.50
2016,03,29,00,29,3.50
2016,03,29,00,30,3.40
2016,03,29,00,31,3.40
2016,03,29,00,32,3.40
2016,03,29,00,33,3.40
2016,03,29,00,34,3.40
2016,03,29,00,35,3.30
2016,03,29,00,36,3.30
2016,03,29,00,37,3.30
2016,03,29,00,38,3.30
2016,03,29,00,39,3.30
2016,03,29,00,40,3.30
2016,03,29,00,41,3.20
2016,03,29,00,42,3.20
2016,03,29,00,43,3.20
2016,03,29,00,44,3.20
2016,03,29,00,45,3.20
2016,03,29,00,46,3.20
2016,03,29,00,47,3.20
2016,03,29,00,48,3.20
2016,03,29,00,49,3.20
2016,03,29,00,50,3.20
2016,03,29,00,51,3.20
2016,03,29,00,52,3.20
2016,03,29,00,53,3.20
2016,03,29,00,54,3.30
2016,03,29,00,55,3.20
2016,03,29,00,56,3.20
2016,03,29,00,57,3.30
2016,03,29,00,58,3.30
2016,03,29,00,59,3.30
2016,03,29,01,00,3.20
2016,03,29,01,01,3.20
2016,03,29,01,02,3.20
2016,03,29,01,03,3.20
2016,03,29,01,04,3.20
2016,03,29,01,05,3.20
2016,03,29,01,06,3.20
2016,03,29,01,07,3.20
2016,03,29,01,08,3.10
2016,03,29,01,09,3.10
2016,03,29,01,10,3.10
2016,03,29,01,11,3.10
2016,03,29,01,12,3.10
2016,03,29,01,13,3.10
2016,03,29,01,14,3.10
2016,03,29,01,15,3.10
2016,03,29,01,16,3.10
2016,03,29,01,17,3.00
2016,03,29,01,18,3.00
2016,03,29,01,19,2.90
2016,03,29,01,20,2.90
2016,03,29,01,21,2.90
2016,03,29,01,22,2.90
2016,03,29,01,23,2.80
2016,03,29,01,24,2.80
2016,03,29,01,25,2.80
2016,03,29,01,26,2.80
2016,03,29,01,27,2.80
2016,03,29,01,28,2.80
2016,03,29,01,29,2.80
2016,03,29,01,30,2.70
2016,03,29,01,31,2.70
2016,03,29,01,32,2.70
2016,03,29,01,33,2.70
2016,03,29,01,34,2.70
2016,03,29,01,35,2.70
2016,03,29,01,36,2.70
2016,03,29,01,37,2.70
2016,03,29,01,38,2.70
2016,03,29,01,39,2.70
2016,03,29,01,40,2.70
2016,03,29,01,41,2.60
2016,03,29,01,42,2.60
2016,03,29,01,43,2.60
2016,03,29,01,44,2.60
2016,03,29,01,45,2.60
2016,03,29,01,46,2.60
2016,03,29,01,47,2.50
2016,03,29,01,48,2.50
2016,03,29,01,49,2.50
2016,03,29,01,50,2.50
2016,03,29,01,51,2.50
2016,03,29,01,52,2.50
2016,03,29,01,53,2.50
2016,03,29,01,54,2.50
2016,03,29,01,55,2.50
2016,03,29,01,56,2.50
2016,03,29,01,57,2.50
2016,03,29,01,58,2.50
2016,03,29,01,59,2.40
2016,03,29,02,00,2.40
2016,03,29,02,01,2.40
2016,03,29,02,02,2.40
2016,03,29,02,03,2.40
2016,03,29,02,04,2.40
2016,03,29,02,05,2.40
2016,03,29,02,06,2.40
2016,03,29,02,07,2.40
2016,03,29,02,08,2.40
2016,03,29,02,09,2.40
2016,03,29,02,10,2.40
2016,03,29,02,11,2.40
2016,03,29,02,12,2.40
2016,03,29,02,13,2.30
2016,03,29,02,14,2.30
2016,03,29,02,15,2.30
2016,03,29,02,16,2.30
2016,03,29,02,17,2.30
2016,03,29,02,18,2.30
2016,03,29,02,19,2.30
2016,03,29,02,20,2.30
2016,03,29,02,21,2.20
2016,03,29,02,22,2.20
2016,03,29,02,23,2.20
2016,03,29,02,24,2.20
2016,03,29,02,25,2.30
2016,03,29,02,26,2.30
2016,03,29,02,27,2.30
2016,03,29,02,28,2.30
2016,03,29,02,29,2.30
2016,03,29,02,30,2.30
2016,03,29,02,31,2.30
2016,03,29,02,32,2.30
2016,03,29,02,33,2.40
2016,03,29,02,34,2.50
2016,03,29,02,35,2.60
2016,03,29,02,36,2.60
2016,03,29,02,37,2.70
2016,03,29,02,38,2.80
2016,03,29,02,39,2.90
2016,03,29,02,40,3.00
2016,03,29,02,41,3.20
2016,03,29,02,42,3.30
2016,03,29,02,43,3.40
2016,03,29,02,44,3.40
2016,03,29,02,45,3.50
2016,03,29,02,46,3.60
2016,03,29,02,47,3.70
2016,03,29,02,48,3.80
2016,03,29,02,49,4.00
2016,03,29,02,50,4.20
2016,03,29,02,51,4.30
2016,03,29,02,52,4.30
2016,03,29,02,53,4.40
2016,03,29,02,54,4.50
2016,03,29,02,55,4.60
2016,03,29,02,56,4.60
2016,03,29,02,57,4.70
2016,03,29,02,58,4.70
2016,03,29,02,59,4.80
2016,03,29,03,00,4.80
2016,03,29,03,01,4.80
2016,03,29,03,02,4.90
2016,03,29,03,03,4.90
2016,03,29,03,04,4.90
2016,03,29,03,05,5.00
2016,03,29,03,06,5.00
2016,03,29,03,07,5.10
2016,03,29,03,08,5.10
2016,03,29,03,09,5.10
2016,03,29,03,10,5.20
2016,03,29,03,11,5.20
2016,03,29,03,12,5.20
2016,03,29,03,13,5.30
2016,03,29,03,14,5.30
2016,03,29,03,15,5.30
2016,03,29,03,16,5.30
2016,03,29,03,17,5.30
2016,03,29,03,18,5.30
2016,03,29,03,19,5.40
2016,03,29,03,20,5.40
2016,03,29,03,21,5.40
2016,03,29,03,22,5.40
2016,03,29,03,23,5.50
2016,03,29,03,24,5.50
2016,03,29,03,25,5.50
2016,03,29,03,26,5.50
2016,03,29,03,27,5.60
2016,03,29,03,28,5.60
2016,03,29,03,29,5.60
2016,03,29,03,30,5.60
2016,03,29,03,31,5.70
2016,03,29,03,32,5.70
2016,03,29,03,33,5.70
2016,03,29,03,34,5.70
2016,03,29,03,35,5.70
2016,03,29,03,36,5.70
2016,03,29,03,37,5.70
2016,03,29,03,38,5.70
2016,03,29,03,39,5.70
2016,03,29,03,40,5.80
2016,03,29,03,41,5.80
2016,03,29,03,42,5.80
2016,03,29,03,43,5.80
2016,03,29,03,44,5.80
2016,03,29,03,45,5.90
2016,03,29,03,46,5.90
2016,03,29,03,47,5.90
2016,03,29,03,48,5.90
2016,03,29,03,49,5.90
2016,03,29,03,50,6.00
2016,03,29,03,51,6.00
2016,03,29,03,52,6.00
2016,03,29,03,53,6.10
2016,03,29,03,54,6.10
2016,03,29,03,55,6.10
2016,03,29,03,56,6.10
2016,03,29,03,57,6.10
2016,03,29,03,58,6.10
2016,03,29,03,59,6.10
2016,03,29,04,00,6.10
2016,03,29,04,01,6.10
2016,03,29,04,02,6.10
2016,03,29,04,03,6.10
2016,03,29,04,04,6.10
2016,03,29,04,05,6.10
2016,03,29,04,06,6.00
2016,03,29,04,07,6.00
2016,03,29,04,08,6.00
2016,03,29,04,09,6.00
2016,03,29,04,10,5.90
2016,03,29,04,11,5.90
2016,03,29,04,12,5.90
2016,03,29,04,13,5.90
2016,03,29,04,14,5.80
2016,03,29,04,15,5.80
2016,03,29,04,16,5.80
2016,03,29,04,17,5.70
2016,03,29,04,18,5.70
2016,03,29,04,19,5.70
2016,03,29,04,20,5.70
2016,03,29,04,21,5.60
2016,03,29,04,22,5.60
2016,03,29,04,23,5.60
2016,03,29,04,24,5.60
2016,03,29,04,25,5.50
2016,03,29,04,26,5.50
2016,03,29,04,27,5.40
2016,03,29,04,28,5.40
2016,03,29,04,29,5.40
2016,03,29,04,30,5.40
2016,03,29,04,31,5.40
2016,03,29,04,32,5.30
2016,03,29,04,33,5.30
2016,03,29,04,34,5.30
2016,03,29,04,35,5.30
2016,03,29,04,36,5.30
2016,03,29,04,37,5.30
2016,03,29,04,38,5.20
2016,03,29,04,39,5.20
2016,03,29,04,40,5.20
2016,03,29,04,41,5.20
2016,03,29,04,42,5.10
2016,03,29,04,43,5.10
2016,03,29,04,44,5.00
2016,03,29,04,45,5.00
2016,03,29,04,46,4.90
2016,03,29,04,47,4.90
2016,03,29,04,48,4.90
2016,03,29,04,49,4.90
2016,03,29,04,50,4.90
2016,03,29,04,51,4.90
2016,03,29,04,52,4.90
2016,03,29,04,53,4.90
2016,03,29,04,54,4.90
2016,03,29,04,55,4.90
2016,03,29,04,56,4.90
2016,03,29,04,57,4.90
2016,03,29,04,58,4.80
2016,03,29,04,59,4.80
2016,03,29,05,00,4.80
2016,03,29,05,01,4.80
2016,03,29,05,02,4.80
2016,03,29,05,03,4.70
2016,03,29,05,04,4.70
2016,03,29,05,05,4.70
2016,03,29,05,06,4.70
2016,03,29,05,07,4.70
2016,03,29,05,08,4.70
2016,03,29,05,09,4.70
2016,03,29,05,10,4.70
2016,03,29,05,11,4.70
2016,03,29,05,12,4.70
2016,03,29,05,13,4.70
2016,03,29,05,14,4.70
2016,03,29,05,15,4.70
2016,03,29,05,16,4.70
2016,03,29,05,17,4.60
2016,03,29,05,18,4.60
2016,03,29,05,19,4.60
2016,03,29,05,20,4.60
2016,03,29,05,21,4.60
2016,03,29,05,22,4.60
2016,03,29,05,23,4.60
2016,03,29,05,24,4.60
2016,03,29,05,25,4.60
2016,03,29,05,26,4.60
2016,03,29,05,27,4.60
2016,03,29,05,28,4.60
2016,03,29,05,29,4.60
2016,03,29,05,30,4.60
2016,03,29,05,31,4.70
2016,03,29,05,32,4.70
2016,03,29,05,33,4.70
2016,03,29,05,34,4.70
2016,03,29,05,35,4.70
2016,03,29,05,36,4.70
2016,03,29,05,37,4.70
2016,03,29,05,38,4.80
2016,03,29,05,39,4.70
2016,03,29,05,40,4.80
2016,03,29,05,41,4.70
2016,03,29,05,42,4.70
2016,03,29,05,43,4.70
2016,03,29,05,44,4.70
2016,03,29,05,45,4.70
2016,03,29,05,46,4.70
2016,03,29,05,47,4.70
2016,03,29,05,48,4.70
2016,03,29,05,49,4.70
2016,03,29,05,50,4.60
2016,03,29,05,51,4.60
2016,03,29,05,52,4.60
2016,03,29,05,53,4.60
2016,03,29,05,54,4.60
2016,03,29,05,55,4.60
2016,03,29,05,56,4.60
2016,03,29,05,57,4.60
2016,03,29,05,58,4.60
2016,03,29,05,59,4.60
2016,03,29,06,00,4.60
2016,03,29,06,01,4.60
2016,03,29,06,02,4.70
2016,03,29,06,03,4.60
2016,03,29,06,04,4.60
2016,03,29,06,05,4.60
2016,03,29,06,06,4.60
2016,03,29,06,07,4.60
2016,03,29,06,08,4.50
2016,03,29,06,09,4.50
2016,03,29,06,10,4.50
2016,03,29,06,11,4.50
2016,03,29,06,12,4.40
2016,03,29,06,13,4.40
2016,03,29,06,14,4.40
2016,03,29,06,15,4.40
2016,03,29,06,16,4.40
2016,03,29,06,17,4.30
2016,03,29,06,18,4.30
2016,03,29,06,19,4.30
2016,03,29,06,20,4.30
2016,03,29,06,21,4.30
2016,03,29,06,22,4.20
2016,03,29,06,23,4.20
2016,03,29,06,24,4.20
2016,03,29,06,25,4.20
2016,03,29,06,26,4.20
2016,03,29,06,27,4.20
2016,03,29,06,28,4.20
2016,03,29,06,29,4.10
2016,03,29,06,30,4.10
2016,03,29,06,31,4.10
2016,03,29,06,32,4.10
2016,03,29,06,33,4.10
2016,03,29,06,34,4.10
2016,03,29,06,35,4.10
2016,03,29,06,36,4.10
2016,03,29,06,37,4.10
2016,03,29,06,38,4.10
2016,03,29,06,39,4.10
2016,03,29,06,40,4.20
2016,03,29,06,41,4.20
2016,03,29,06,42,4.20
2016,03,29,06,43,4.20
2016,03,29,06,44,4.20
2016,03,29,06,45,4.20
2016,03,29,06,46,4.20
2016,03,29,06,47,4.20
2016,03,29,06,48,4.20
2016,03,29,06,49,4.20
2016,03,29,06,50,4.20
2016,03,29,06,51,4.10
2016,03,29,06,52,4.10
2016,03,29,06,53,4.10
2016,03,29,06,54,4.10
2016,03,29,06,55,4.00
2016,03,29,06,56,4.00
2016,03,29,06,57,4.00
2016,03,29,06,58,3.90
2016,03,29,06,59,3.90
2016,03,29,07,00,3.90
2016,03,29,07,01,3.90
2016,03,29,07,02,3.80
2016,03,29,07,03,3.80
2016,03,29,07,04,3.80
2016,03,29,07,05,3.70
2016,03,29,07,06,3.70
2016,03,29,07,07,3.70
2016,03,29,07,08,3.70
2016,03,29,07,09,3.70
2016,03,29,07,10,3.70
2016,03,29,07,11,3.70
2016,03,29,07,12,3.70
2016,03,29,07,13,3.70
2016,03,29,07,14,3.70
2016,03,29,07,15,3.70
2016,03,29,07,16,3.70
2016,03,29,07,17,3.70
2016,03,29,07,18,3.70
2016,03,29,07,19,3.70
2016,03,29,07,20,3.70
2016,03,29,07,21,3.70
2016,03,29,07,22,3.70
2016,03,29,07,23,3.70
2016,03,29,07,24,3.70
2016,03,29,07,25,3.70
2016,03,29,07,26,3.70
2016,03,29,07,27,3.60
2016,03,29,07,28,3.60
2016,03,29,07,29,3.60
2016,03,29,07,30,3.60
2016,03,29,07,31,3.60
2016,03,29,07,32,3.60
2016,03,29,07,33,3.60
2016,03,29,07,34,3.60
2016,03,29,07,35,3.60
2016,03,29,07,36,3.60
2016,03,29,07,37,3.60
2016,03,29,07,38,3.60
2016,03,29,07,39,3.60
2016,03,29,07,40,3.60
2016,03,29,07,41,3.60
2016,03,29,07,42,3.60
2016,03,29,07,43,3.60
2016,03,29,07,44,3.60
2016,03,29,07,45,3.60
2016,03,29,07,46,3.60
2016,03,29,07,47,3.60
2016,03,29,07,48,3.60
2016,03,29,07,49,3.60
2016,03,29,07,50,3.60
2016,03,29,07,51,3.70
2016,03,29,07,52,3.70
2016,03,29,07,53,3.70
2016,03,29,07,54,3.80
2016,03,29,07,55,3.90
2016,03,29,07,56,3.90
2016,03,29,07,57,4.00
2016,03,29,07,58,4.10
2016,03,29,07,59,4.20
2016,03,29,08,00,4.30
2016,03,29,08,01,4.40
2016,03,29,08,02,4.50
2016,03,29,08,03,4.70
2016,03,29,08,04,4.80
2016,03,29,08,05,4.90
2016,03,29,08,06,5.10
2016,03,29,08,07,5.20
2016,03,29,08,08,5.30
2016,03,29,08,09,5.40
2016,03,29,08,10,5.50
2016,03,29,08,11,5.70
2016,03,29,08,12,5.80
2016,03,29,08,13,5.90
2016,03,29,08,14,6.00
2016,03,29,08,15,6.10
2016,03,29,08,16,6.30
2016,03,29,08,17,6.40
2016,03,29,08,18,6.50
2016,03,29,08,19,6.60
2016,03,29,08,20,6.70
2016,03,29,08,21,6.80
2016,03,29,08,22,6.80
2016,03,29,08,23,6.90
2016,03,29,08,24,7.00
2016,03,29,08,25,7.10
2016,03,29,08,26,7.20
2016,03,29,08,27,7.20
2016,03,29,08,28,7.30
2016,03,29,08,29,7.40
2016,03,29,08,30,7.40
2016,03,29,08,31,7.50
2016,03,29,08,32,7.60
2016,03,29,08,33,7.70
2016,03,29,08,34,7.80
2016,03,29,08,35,7.90
2016,03,29,08,36,8.00
2016,03,29,08,37,8.00
2016,03,29,08,38,8.10
2016,03,29,08,39,8.20
2016,03,29,08,40,8.20
2016,03,29,08,41,8.30
2016,03,29,08,42,8.30
2016,03,29,08,43,8.40
2016,03,29,08,44,8.40
2016,03,29,08,45,8.50
2016,03,29,08,46,8.50
2016,03,29,08,47,8.50
2016,03,29,08,48,8.50
2016,03,29,08,49,8.60
2016,03,29,08,50,8.60
2016,03,29,08,51,8.60
2016,03,29,08,52,8.60
2016,03,29,08,53,8.70
2016,03,29,08,54,8.70
2016,03,29,08,55,8.80
2016,03,29,08,56,8.80
2016,03,29,08,57,8.90
2016,03,29,08,58,8.90
2016,03,29,08,59,8.90
2016,03,29,09,00,9.00
2016,03,29,09,01,9.00
2016,03,29,09,02,9.00
2016,03,29,09,03,9.00
2016,03,29,09,04,9.10
2016,03,29,09,05,9.10
2016,03,29,09,06,9.10
2016,03,29,09,07,9.10
2016,03,29,09,08,9.20
2016,03,29,09,09,9.20
2016,03,29,09,10,9.20
2016,03,29,09,11,9.20
2016,03,29,09,12,9.30
2016,03,29,09,13,9.30
2016,03,29,09,14,9.30
2016,03,29,09,15,9.30
2016,03,29,09,16,9.30
2016,03,29,09,17,9.30
2016,03,29,09,18,9.40
2016,03,29,09,19,9.40
2016,03,29,09,20,9.40
2016,03,29,09,21,9.40
2016,03,29,09,22,9.40
2016,03,29,09,23,9.40
2016,03,29,09,24,9.50
2016,03,29,09,25,9.50
2016,03,29,09,26,9.60
2016,03,29,09,27,9.60
2016,03,29,09,28,9.60
2016,03,29,09,29,9.70
2016,03,29,09,30,9.70
2016,03,29,09,31,9.70
2016,03,29,09,32,9.70
2016,03,29,09,33,9.70
2016,03,29,09,34,9.70
2016,03,29,09,35,9.70
2016,03,29,09,36,9.70
2016,03,29,09,37,9.70
2016,03,29,09,38,9.70
2016,03,29,09,39,9.70
2016,03,29,09,40,9.80
2016,03,29,09,41,9.80
2016,03,29,09,42,9.80
2016,03,29,09,43,9.80
2016,03,29,09,44,9.80
2016,03,29,09,45,9.90
2016,03,29,09,46,9.90
2016,03,29,09,47,9.90
2016,03,29,09,48,9.90
2016,03,29,09,49,10.00
2016,03,29,09,50,10.00
2016,03,29,09,51,10.10
2016,03,29,09,52,10.10
2016,03,29,09,53,10.10
2016,03,29,09,54,10.20
2016,03,29,09,55,10.20
2016,03,29,09,56,10.30
2016,03,29,09,57,10.30
2016,03,29,09,58,10.40
2016,03,29,09,59,10.40
2016,03,29,10,00,10.50
2016,03,29,10,01,10.50
2016,03,29,10,02,10.50
2016,03,29,10,03,10.50
2016,03,29,10,04,10.50
2016,03,29,10,05,10.50
2016,03,29,10,06,10.60
2016,03,29,10,07,10.60
2016,03,29,10,08,10.60
2016,03,29,10,09,10.60
2016,03,29,10,10,10.70
2016,03,29,10,11,10.70
2016,03,29,10,12,10.70
2016,03,29,10,13,10.60
2016,03,29,10,14,10.60
2016,03,29,10,15,10.60
2016,03,29,10,16,10.60
2016,03,29,10,17,10.60
2016,03,29,10,18,10.60
2016,03,29,10,19,10.60
2016,03,29,10,20,10.60
2016,03,29,10,21,10.60
2016,03,29,10,22,10.70
2016,03,29,10,23,10.70
2016,03,29,10,24,10.70
2016,03,29,10,25,10.70
2016,03,29,10,26,10.70
2016,03,29,10,27,10.80
2016,03,29,10,28,10.80
2016,03,29,10,29,10.80
2016,03,29,10,30,10.80
2016,03,29,10,31,10.80
2016,03,29,10,32,10.90
2016,03,29,10,33,10.90
2016,03,29,10,34,10.90
2016,03,29,10,35,11.00
2016,03,29,10,36,11.00
2016,03,29,10,37,11.00
2016,03,29,10,38,11.10
2016,03,29,10,39,11.10
2016,03,29,10,40,11.20
2016,03,29,10,41,11.20
2016,03,29,10,42,11.20
2016,03,29,10,43,11.20
2016,03,29,10,44,11.20
2016,03,29,10,45,11.20
2016,03,29,10,46,11.20
2016,03,29,10,47,11.20
2016,03,29,10,48,11.20
2016,03,29,10,49,11.30
2016,03,29,10,50,11.30
2016,03,29,10,51,11.30
2016,03,29,10,52,11.40
2016,03,29,10,53,11.40
2016,03,29,10,54,11.40
2016,03,29,10,55,11.40
2016,03,29,10,56,11.40
2016,03,29,10,57,11.40
2016,03,29,10,58,11.40
2016,03,29,10,59,11.40
2016,03,29,11,00,11.40
2016,03,29,11,01,11.50
2016,03,29,11,02,11.60
2016,03,29,11,03,11.60
2016,03,29,11,04,11.70
2016,03,29,11,05,11.80
2016,03,29,11,06,11.80
2016,03,29,11,07,11.90
2016,03,29,11,08,11.90
2016,03,29,11,09,12.00
2016,03,29,11,10,12.00
2016,03,29,11,11,12.00
2016,03,29,11,12,12.00
2016,03,29,11,13,12.00
2016,03,29,11,14,12.00
2016,03,29,11,15,12.00
2016,03,29,11,16,12.00
2016,03,29,11,17,12.00
2016,03,29,11,18,12.00
2016,03,29,11,19,12.00
2016,03,29,11,20,11.90
2016,03,29,11,21,11.90
2016,03,29,11,22,11.90
2016,03,29,11,23,11.90
2016,03,29,11,24,11.90
2016,03,29,11,25,11.90
2016,03,29,11,26,11.90
2016,03,29,11,27,12.00
2016,03,29,11,28,12.00
2016,03,29,11,29,12.00
2016,03,29,11,30,12.00
2016,03,29,11,31,12.00
2016,03,29,11,32,12.10
2016,03,29,11,33,12.10
2016,03,29,11,34,12.10
2016,03,29,11,35,12.10
2016,03,29,11,36,12.20
2016,03,29,11,37,12.20
2016,03,29,11,38,12.20
2016,03,29,11,39,12.30
2016,03,29,11,40,12.30
2016,03,29,11,41,12.30
2016,03,29,11,42,12.40
2016,03,29,11,43,12.40
2016,03,29,11,44,12.50
2016,03,29,11,45,12.50
2016,03,29,11,46,12.50
2016,03,29,11,47,12.60
2016,03,29,11,48,12.60
2016,03,29,11,49,12.60
2016,03,29,11,50,12.60
2016,03,29,11,51,12.60
2016,03,29,11,52,12.60
2016,03,29,11,53,12.60
2016,03,29,11,54,12.70
2016,03,29,11,55,12.70
2016,03,29,11,56,12.60
2016,03,29,11,57,12.60
2016,03,29,11,58,12.60
2016,03,29,11,59,12.60
2016,03,29,12,00,12.60
2016,03,29,12,01,12.60
2016,03,29,12,02,12.60
2016,03,29,12,03,12.60
2016,03,29,12,04,12.60
2016,03,29,12,05,12.60
2016,03,29,12,06,12.60
2016,03,29,12,07,12.70
2016,03,29,12,08,12.70
2016,03,29,12,09,12.80
2016,03,29,12,10,12.80
2016,03,29,12,11,12.90
2016,03,29,12,12,13.00
2016,03,29,12,13,13.00
2016,03,29,12,14,13.10
2016,03,29,12,15,13.10
2016,03,29,12,16,13.10
2016,03,29,12,17,13.10
2016,03,29,12,18,13.10
2016,03,29,12,19,13.10
2016,03,29,12,20,13.10
2016,03,29,12,21,13.10
2016,03,29,12,22,13.10
2016,03,29,12,23,13.10
2016,03,29,12,24,13.10
2016,03,29,12,25,13.10
2016,03,29,12,26,13.10
2016,03,29,12,27,13.10
2016,03,29,12,28,13.20
2016,03,29,12,29,13.20
2016,03,29,12,30,13.30
2016,03,29,12,31,13.40
2016,03,29,12,32,13.50
2016,03,29,12,33,13.60
2016,03,29,12,34,13.60
2016,03,29,12,35,13.70
2016,03,29,12,36,13.70
2016,03,29,12,37,13.80
2016,03,29,12,38,13.80
2016,03,29,12,39,13.80
2016,03,29,12,40,13.80
2016,03,29,12,41,13.90
2016,03,29,12,42,13.90
2016,03,29,12,43,13.90
2016,03,29,12,44,13.80
2016,03,29,12,45,13.80
2016,03,29,12,46,13.80
2016,03,29,12,47,13.80
2016,03,29,12,48,13.70
2016,03,29,12,49,13.70
2016,03,29,12,50,13.70
2016,03,29,12,51,13.70
2016,03,29,12,52,13.70
2016,03,29,12,53,13.70
2016,03,29,12,54,13.70
2016,03,29,12,55,13.70
2016,03,29,12,56,13.70
2016,03,29,12,57,13.70
2016,03,29,12,58,13.70
2016,03,29,12,59,13.70
2016,03,29,13,00,13.70
2016,03,29,13,01,13.70
2016,03,29,13,02,13.60
2016,03,29,13,03,13.70
2016,03,29,13,04,13.70
2016,03,29,13,05,13.70
2016,03,29,13,06,13.70
2016,03,29,13,07,13.70
2016,03,29,13,08,13.80
2016,03,29,13,09,13.80
2016,03,29,13,10,13.90
2016,03,29,13,11,14.00
2016,03,29,13,12,14.10
2016,03,29,13,13,14.10
2016,03,29,13,14,14.10
2016,03,29,13,15,14.10
2016,03,29,13,16,14.10
2016,03,29,13,17,14.20
2016,03,29,13,18,14.20
2016,03,29,13,19,14.20
2016,03,29,13,20,14.20
2016,03,29,13,21,14.30
2016,03,29,13,22,14.30
2016,03,29,13,23,14.30
2016,03,29,13,24,14.20
2016,03,29,13,25,14.20
2016,03,29,13,26,14.20
2016,03,29,13,27,14.10
2016,03,29,13,28,14.00
2016,03,29,13,29,13.90
2016,03,29,13,30,14.00
2016,03,29,13,31,14.00
2016,03,29,13,32,14.10
2016,03,29,13,33,14.10
2016,03,29,13,34,14.00
2016,03,29,13,35,14.00
2016,03,29,13,36,14.00
2016,03,29,13,37,13.90
2016,03,29,13,38,13.90
2016,03,29,13,39,13.90
2016,03,29,13,40,13.90
2016,03,29,13,41,14.00
2016,03,29,13,42,14.00
2016,03,29,13,43,14.10
2016,03,29,13,44,14.20
2016,03,29,13,45,14.10
2016,03,29,13,46,14.10
2016,03,29,13,47,14.00
2016,03,29,13,48,14.00
2016,03,29,13,49,13.90
2016,03,29,13,50,13.90
2016,03,29,13,51,13.90
2016,03,29,13,52,14.00
2016,03,29,13,53,14.00
2016,03,29,13,54,14.10
2016,03,29,13,55,14.10
2016,03,29,13,56,14.00
2016,03,29,13,57,14.00
2016,03,29,13,58,14.00
2016,03,29,13,59,13.90
2016,03,29,14,00,14.00
2016,03,29,14,01,14.00
2016,03,29,14,02,14.00
2016,03,29,14,03,14.00
2016,03,29,14,04,14.10
2016,03,29,14,05,14.10
2016,03,29,14,06,14.10
2016,03,29,14,07,14.10
2016,03,29,14,08,14.20
2016,03,29,14,09,14.20
2016,03,29,14,10,14.20
2016,03,29,14,11,14.30
2016,03,29,14,12,14.30
2016,03,29,14,13,14.30
2016,03,29,14,14,14.30
2016,03,29,14,15,14.30
2016,03,29,14,16,14.20
2016,03,29,14,17,14.20
2016,03,29,14,18,14.20
2016,03,29,14,19,14.20
2016,03,29,14,20,14.20
2016,03,29,14,21,14.10
2016,03,29,14,22,14.10
2016,03,29,14,23,14.10
2016,03,29,14,24,14.10
2016,03,29,14,25,14.10
2016,03,29,14,26,14.00
2016,03,29,14,27,14.00
2016,03,29,14,28,13.90
2016,03,29,14,29,13.80
2016,03,29,14,30,13.70
2016,03,29,14,31,13.70
2016,03,29,14,32,13.60
2016,03,29,14,33,13.60
2016,03,29,14,34,13.60
2016,03,29,14,35,13.60
2016,03,29,14,36,13.60
2016,03,29,14,37,13.60
2016,03,29,14,38,13.60
2016,03,29,14,39,13.60
2016,03,29,14,40,13.60
2016,03,29,14,41,13.70
2016,03,29,14,42,13.70
2016,03,29,14,43,13.70
2016,03,29,14,44,13.70
2016,03,29,14,45,13.70
2016,03,29,14,46,13.70
2016,03,29,14,47,13.70
2016,03,29,14,48,13.60
2016,03,29,14,49,13.60
2016,03,29,14,50,13.50
2016,03,29,14,51,13.50
2016,03,29,14,52,13.40
2016,03,29,14,53,13.40
2016,03,29,14,54,13.30
2016,03,29,14,55,13.30
2016,03,29,14,56,13.30
2016,03,29,14,57,13.30
2016,03,29,14,58,13.30
2016,03,29,14,59,13.20
2016,03,29,15,00,13.20
2016,03,29,15,01,13.20
2016,03,29,15,02,13.20
2016,03,29,15,03,13.20
2016,03,29,15,04,13.30
2016,03,29,15,05,13.30
2016,03,29,15,06,13.30
2016,03,29,15,07,13.30
2016,03,29,15,08,13.40
2016,03,29,15,09,13.40
2016,03,29,15,10,13.40
2016,03,29,15,11,13.40
2016,03,29,15,12,13.40
2016,03,29,15,13,13.40
2016,03,29,15,14,13.50
2016,03,29,15,15,13.50
2016,03,29,15,16,13.60
2016,03,29,15,17,13.70
2016,03,29,15,18,13.80
2016,03,29,15,19,13.90
2016,03,29,15,20,14.00
2016,03,29,15,21,14.10
2016,03,29,15,22,14.20
2016,03,29,15,23,14.30
2016,03,29,15,24,14.40
2016,03,29,15,25,14.40
2016,03,29,15,26,14.40
2016,03,29,15,27,14.40
2016,03,29,15,28,14.50
2016,03,29,15,29,14.50
2016,03,29,15,30,14.50
2016,03,29,15,31,14.50
2016,03,29,15,32,14.50
2016,03,29,15,33,14.50
2016,03,29,15,34,14.50
2016,03,29,15,35,14.50
2016,03,29,15,36,14.50
2016,03,29,15,37,14.50
2016,03,29,15,38,14.50
2016,03,29,15,39,14.50
2016,03,29,15,40,14.50
2016,03,29,15,41,14.60
2016,03,29,15,42,14.60
2016,03,29,15,43,14.60
2016,03,29,15,44,14.60
2016,03,29,15,45,14.70
2016,03,29,15,46,14.70
2016,03,29,15,47,14.60
2016,03,29,15,48,14.60
2016,03,29,15,49,14.60
2016,03,29,15,50,14.60
2016,03,29,15,51,14.50
2016,03,29,15,52,14.40
2016,03,29,15,53,14.40
2016,03,29,15,54,14.40
2016,03,29,15,55,14.30
2016,03,29,15,56,14.30
2016,03,29,15,57,14.30
2016,03,29,15,58,14.30
2016,03,29,15,59,14.30
2016,03,29,16,00,14.30
2016,03,29,16,01,14.30
2016,03,29,16,02,14.30
2016,03,29,16,03,14.30
2016,03,29,16,04,14.40
2016,03,29,16,05,14.40
2016,03,29,16,06,14.40
2016,03,29,16,07,14.50
2016,03,29,16,08,14.50
2016,03,29,16,09,14.50
2016,03,29,16,10,14.60
2016,03,29,16,11,14.70
2016,03,29,16,12,14.70
2016,03,29,16,13,14.80
2016,03,29,16,14,14.80
2016,03,29,16,15,14.90
2016,03,29,16,16,14.90
2016,03,29,16,17,14.90
2016,03,29,16,18,14.90
2016,03,29,16,19,14.90
2016,03,29,16,20,14.90
2016,03,29,16,21,14.90
2016,03,29,16,22,14.90
2016,03,29,16,23,14.90
2016,03,29,16,24,14.90
2016,03,29,16,25,14.90
2016,03,29,16,26,14.90
2016,03,29,16,27,14.90
2016,03,29,16,28,15.00
2016,03,29,16,29,15.00
2016,03,29,16,30,15.10
2016,03,29,16,31,15.20
2016,03,29,16,32,15.30
2016,03,29,16,33,15.30
2016,03,29,16,34,15.40
2016,03,29,16,35,15.40
2016,03,29,16,36,15.50
2016,03,29,16,37,15.50
2016,03,29,16,38,15.60
2016,03,29,16,39,15.60
2016,03,29,16,40,15.70
2016,03,29,16,41,15.70
2016,03,29,16,42,15.80
2016,03,29,16,43,15.80
2016,03,29,16,44,15.90
2016,03,29,16,45,15.90
2016,03,29,16,46,16.00
2016,03,29,16,47,16.10
2016,03,29,16,48,16.10
2016,03,29,16,49,16.20
2016,03,29,16,50,16.30
2016,03,29,16,51,16.30
2016,03,29,16,52,16.40
2016,03,29,16,53,16.40
2016,03,29,16,54,16.40
2016,03,29,16,55,16.40
2016,03,29,16,56,16.40
2016,03,29,16,57,16.40
2016,03,29,16,58,16.40
2016,03,29,16,59,16.50
2016,03,29,17,00,16.50
2016,03,29,17,01,16.60
2016,03,29,17,02,16.60
2016,03,29,17,03,16.70
2016,03,29,17,04,16.70
2016,03,29,17,05,16.80
2016,03,29,17,06,16.80
2016,03,29,17,07,16.90
2016,03,29,17,08,16.90
2016,03,29,17,09,16.90
2016,03,29,17,10,17.00
2016,03,29,17,11,17.00
2016,03,29,17,12,17.10
2016,03,29,17,13,17.10
2016,03,29,17,14,17.10
2016,03,29,17,15,17.00
2016,03,29,17,16,17.00
2016,03,29,17,17,16.90
2016,03,29,17,18,16.90
2016,03,29,17,19,16.80
2016,03,29,17,20,16.80
2016,03,29,17,21,16.70
2016,03,29,17,22,16.60
2016,03,29,17,23,16.60
2016,03,29,17,24,16.60
2016,03,29,17,25,16.50
2016,03,29,17,26,16.60
2016,03,29,17,27,16.60
2016,03,29,17,28,16.60
2016,03,29,17,29,16.60
2016,03,29,17,30,16.60
2016,03,29,17,31,16.70
2016,03,29,17,32,16.70
2016,03,29,17,33,16.70
2016,03,29,17,34,16.70
2016,03,29,17,35,16.60
2016,03,29,17,36,16.60
2016,03,29,17,37,16.60
2016,03,29,17,38,16.60
2016,03,29,17,39,16.60
2016,03,29,17,40,16.50
2016,03,29,17,41,16.50
2016,03,29,17,42,16.50
2016,03,29,17,43,16.40
2016,03,29,17,44,16.40
2016,03,29,17,45,16.40